KF5NXR Weather Reports


time (UTC)temp
C
wind
direction
speed
KPH
gust
KPH
rain 1hr
cm
rain 24hr
cm
rain mn
cm
humidity
%
barometer
mb
20260505173002 28 270 0.0 11.3 0.00 0.00 0.00 72 1009.1
20260505171559 27 278 1.6 19.3 0.00 0.00 0.00 74 1009.2
20260505170156 27 265 1.6 19.3 0.00 0.00 0.00 74 1009.2
20260505164556 27 271 0.0 20.9 0.00 0.00 0.00 74 1009.2
20260505163053 26 264 6.4 25.7 0.00 0.00 0.00 75 1008.9
20260505161551 26 270 1.6 24.1 0.00 0.00 0.00 77 1008.8
20260505153049 24 256 6.4 24.1 0.00 0.00 0.00 81 1009.0
20260505151545 24 261 1.6 37.0 0.00 0.00 0.00 81 1009.0
20260505124520 21 272 0.0 9.7 0.00 0.00 0.00 88 1008.7
20260505123021 21 270 1.6 20.9 0.00 0.00 0.00 88 1008.7
20260505121518 21 270 1.6 20.9 0.00 0.00 0.00 87 1008.4
20260505120018 21 274 0.0 17.7 0.00 0.00 0.00 87 1008.3
20260505114516 21 285 1.6 14.5 0.00 0.00 0.00 88 1008.0
20260505113019 21 280 3.2 19.3 0.00 0.00 0.00 88 1007.8
20260505111530 21 279 3.2 24.1 0.00 0.00 0.00 87 1007.7
20260505101520 21 283 6.4 20.9 0.00 0.00 0.00 87 1008.0
20260505100006 21 276 3.2 24.1 0.00 0.00 0.00 87 1008.3
20260505094505 21 278 3.2 27.4 0.00 0.00 0.00 87 1008.3
20260505093005 21 275 1.6 25.7 0.00 0.00 0.00 87 1008.4
20260505091504 21 280 1.6 24.1 0.00 0.00 0.00 87 1008.3
20260505090005 21 270 0.0 20.9 0.00 0.00 0.00 87 1008.4
20260505084503 21 258 9.7 30.6 0.00 0.00 0.00 87 1008.2
20260505083107 21 287 4.8 25.7 0.00 0.00 0.00 87 1008.3
20260505081557 21 288 3.2 20.9 0.00 0.00 0.00 87 1008.3
20260505080055 21 262 3.2 22.5 0.00 0.00 0.00 87 1008.6
20260505074552 21 268 0.0 14.5 0.00 0.00 0.00 86 1009.0
20260505073053 21 262 0.0 24.1 0.00 0.00 0.00 85 1009.1
20260505071548 21 283 3.2 20.9 0.00 0.00 0.00 85 1009.2
20260505070100 21 268 3.2 22.5 0.00 0.00 0.00 84 1009.4
20260505064553 21 270 3.2 19.3 0.00 0.00 0.00 84 1009.2
20260505063043 21 260 8.0 32.2 0.00 0.00 0.00 84 1009.6
20260505061607 21 275 1.6 27.4 0.00 0.00 0.00 83 1009.6
20260505060044 21 277 3.2 25.7 0.00 0.00 0.00 83 1009.8
20260505054544 21 276 4.8 29.0 0.00 0.00 0.00 82 1010.1
20260505053034 21 291 1.6 22.5 0.00 0.00 0.00 81 1010.1
20260505051602 21 266 3.2 17.7 0.00 0.00 0.00 81 1010.2
20260505041524 22 275 3.2 17.7 0.00 0.00 0.00 79 1010.6
20260505040037 22 281 1.6 19.3 0.00 0.00 0.00 79 1010.4
20260505034533 21 266 0.0 9.7 0.00 0.00 0.00 79 1010.3
20260505033017 21 266 0.0 4.8 0.00 0.00 0.00 78 1010.9
20260505031515 22 271 0.0 11.3 0.00 0.00 0.00 78 1010.7
20260505030017 22 281 0.0 4.8 0.00 0.00 0.00 77 1010.8
20260505024512 22 268 0.0 1.6 0.00 0.00 0.00 76 1010.8
20260505023012 22 277 0.0 3.2 0.00 0.00 0.00 76 1010.5
20260505021507 22 274 0.0 3.2 0.00 0.00 0.00 75 1010.5
20260505014500 22 268 0.0 1.6 0.00 0.00 0.00 74 1010.5
20260505011539 23 275 0.0 6.4 0.00 0.00 0.00 72 1010.4
20260505010038 23 278 0.0 20.9 0.00 0.00 0.00 71 1010.4
20260505004533 23 281 1.6 14.5 0.00 0.00 0.00 70 1010.3
20260505003028 24 301 1.6 1.6 0.00 0.00 0.00 1010.5
20260505000055 25 278 1.6 20.9 0.00 0.00 0.00 67 1010.6
20260504234557 25 280 1.6 22.5 0.00 0.00 0.00 66 1010.7
20260504233045 25 285 6.4 24.1 0.00 0.00 0.00 65 1010.6
20260504231543 26 292 1.6 17.7 0.00 0.00 0.00 63 1011.1
20260504230043 26 247 1.6 20.9 0.00 0.00 0.00 63 1011.3
20260504224541 26 202 4.8 22.5 0.00 0.00 0.00 61 1011.1
20260504223041 26 287 1.6 19.3 0.00 0.00 0.00 61 1011.2
20260504221542 26 287 0.0 22.5 0.00 0.00 0.00 61 1011.4
20260504220046 26 268 6.4 27.4 0.00 0.00 0.00 60 1011.5
20260504214537 26 280 8.0 22.5 0.00 0.00 0.00 59 1011.9
20260504213050 26 284 3.2 25.7 0.00 0.00 0.00 60 1012.0
20260504211540 26 270 4.8 19.3 0.00 0.00 0.00 58 1012.3
20260504210033 26 271 3.2 24.1 0.00 0.00 0.00 56 1012.5
20260504204538 26 279 1.6 24.1 0.00 0.00 0.00 56 1012.9
20260504203027 26 278 6.4 30.6 0.00 0.00 0.00 54 1013.2
20260504201526 26 276 8.0 27.4 0.00 0.00 0.00 54 1013.6
20260504200022 26 271 6.4 20.9 0.00 0.00 0.00 54 1013.9
20260504194520 26 275 1.6 25.7 0.00 0.00 0.00 54 1014.0
20260504193020 26 288 0.0 25.7 0.00 0.00 0.00 54 1014.3
20260504191515 26 275 3.2 17.7 0.00 0.00 0.00 56 1014.4
20260504190014 26 284 8.0 24.1 0.00 0.00 0.00 53 1014.8
20260504184510 26 283 3.2 27.4 0.00 0.00 0.00 54 1014.7
20260504183007 26 299 6.4 29.0 0.00 0.00 0.00 53 1015.1
20260504181505 26 262 1.6 20.9 0.00 0.00 0.00 54 1015.4
20260504180004 26 151 1.6 16.1 0.00 0.00 0.00 53 1015.6
20260504174559 25 258 9.7 27.4 0.00 0.00 0.00 53 1016.0